Content
SEND FEEDBACK

Daily
Averages
Monthly
Summary
France

LYON, FRANCE


Home > Europe > France
Elevation: 659 feet     Latitude: 45 43N     Longitude: 004 57E

WEATHER
 
SELECT A DAY
Number of Records: 153,289;   Date Range: 7/1/96 - 7/28/14
 
SHARE

PRINT THIS DATA

[ ← Previous Day ]
WEATHER ALMANAC - FEBRUARY 20, 2013
[ Next Day → ]
[ °C ]   °F
Weather ElementAverageHighLow
Temperature33 °F41 °F (4:30 pm)28.4 °F (1:30 am)
Dewpoint29.9 °F33.8 °F (4:30 pm)26.6 °F (1:30 am)
Humidity88.8 %100 % (4:00 am)75 % (2:30 pm)
Barometer29.97 in30.01 in (9:30 am)29.95 in (3:30 pm)
Wind Speed4.5 mph11.5 mph (3:00 pm)
Weather ElementAverage
Visibility2.2 mi
Wind DirectionESE (121.7 °)

Weather ElementTotal
Precipitation---
Heating Degree Days30.3 (Base 65)
Averaged from 46 records on February 20, 2013
WEATHER CONDITIONS BREAKOUT
WIND DIRECTION BREAKOUT
WEATHER BY HOUR - FEBRUARY 20, 2013
[ °C ]   °F
Local TimeTemperatureDewpointHumidityBarometerVisibilityWind DirectionWind SpeedGust SpeedPrecipitationEventsConditions
12:30 AM30.2 °F28.4 °F93 %29.98 in1.5 miCalmMist
1:30 AM28.4 °F26.6 °F93 %29.98 in1.3 miCalmMist
2:00 AM28.4 °F26.6 °F93 %29.98 in1.4 miCalmMist
2:30 AM28.4 °F26.6 °F93 %29.98 in1.4 miNE (50°)2.3 mphMist
3:00 AM28.4 °F26.6 °F93 %29.98 in1.3 miCalmMist
3:30 AM30.2 °F28.4 °F93 %29.98 in0.1 miNorth (360°)4.6 mphFogLight Freezing Fog
4:00 AM30.2 °F30.2 °F100 %29.98 in0.1 miNNE (20°)3.5 mphFogLight Freezing Fog
4:30 AM30.2 °F30.2 °F100 %29.98 in0.1 miNorth (360°)4.6 mphFogLight Freezing Fog
5:00 AM30.2 °F30.2 °F100 %29.98 in0.1 miVariable2.3 mphFogLight Freezing Fog
5:30 AM30.2 °F30.2 °F100 %29.98 in0.1 miNorth (350°)4.6 mphFogLight Freezing Fog
6:00 AM30.2 °F30.2 °F100 %29.98 in0.2 miNorth (10°)4.6 mphFogLight Freezing Fog
6:30 AM30.2 °F28.4 °F93 %29.98 in0.3 miNorth (10°)5.8 mphFogLight Freezing Fog
7:00 AM28.4 °F28.4 °F100 %29.98 in0.6 miNorth (360°)4.6 mphMist
7:30 AM28.4 °F28.4 °F100 %29.98 in0.4 miNNW (340°)4.6 mphFogLight Freezing Fog
8:00 AM28.4 °F28.4 °F100 %29.98 in1.0 miNNE (30°)5.8 mphOvercast
8:30 AM28.4 °F28.4 °F100 %29.98 inNorth (10°)4.6 mphOvercast
9:00 AM30.2 °F28.4 °F93 %29.98 in1.8 miNNE (20°)5.8 mphOvercast
9:30 AM30.2 °F28.4 °F93 %30.01 in1.8 miNorth (350°)5.8 mphOvercast
10:00 AM30.2 °F28.4 °F93 %30.01 inNNW (340°)5.8 mphOvercast
10:30 AM32.0 °F30.2 °F93 %30.01 inNorth (360°)3.5 mphOvercast
11:00 AM32.0 °F30.2 °F93 %30.01 inNNW (330°)5.8 mphOvercast
11:30 AM32.0 °F30.2 °F93 %30.01 in2.5 miNNW (340°)5.8 mphOvercast
12:00 PM33.8 °F30.2 °F87 %30.01 inNorth (10°)4.6 mphOvercast
12:30 PM35.6 °F30.2 °F81 %30.01 in3.1 miNorth (10°)5.8 mphOvercast
1:00 PM35.6 °F30.2 °F81 %29.98 in3.7 miNorth (10°)6.9 mphOvercast
1:30 PM35.6 °F30.2 °F81 %29.98 in3.1 miNorth (10°)6.9 mphOvercast
2:00 PM37.4 °F32.0 °F81 %29.98 in3.7 miNNE (20°)8.1 mphOvercast
2:30 PM39.2 °F32.0 °F75 %29.98 in3.7 miNNE (30°)10.4 mphMostly Cloudy
3:00 PM37.4 °F32.0 °F81 %29.98 in3.7 miNNE (30°)11.5 mphMostly Cloudy
3:30 PM37.4 °F32.0 °F81 %29.95 in3.1 miNE (50°)8.1 mphOvercast
4:00 PM39.2 °F32.0 °F75 %29.95 in3.1 miNE (40°)8.1 mphPartly Cloudy
4:30 PM41.0 °F33.8 °F76 %29.95 in3.1 miENE (70°)8.1 mphMist
5:00 PM39.2 °F33.8 °F81 %29.95 inEast (90°)3.5 mphPartly Cloudy
5:30 PM39.2 °F33.8 °F81 %29.95 inEast (100°)3.5 mphScattered Clouds
6:00 PM37.4 °F33.8 °F87 %29.95 inEast (100°)3.5 mphOvercast
6:30 PM37.4 °F33.8 °F87 %29.95 inVariable2.3 mphOvercast
7:00 PM35.6 °F32.0 °F87 %29.95 in1.9 miVariable2.3 mphPartly Cloudy
7:30 PM33.8 °F30.2 °F87 %29.95 in1.7 miVariable3.5 mphMist
8:00 PM33.8 °F30.2 °F87 %29.95 in1.4 miVariable1.2 mphMist
8:30 PM32.0 °F28.4 °F87 %29.95 in1.4 miCalmMist
9:00 PM32.0 °F30.2 °F93 %29.95 in1.4 miVariable1.2 mphMist
9:30 PM32.0 °F28.4 °F87 %29.95 inCalmMist
10:00 PM33.8 °F28.4 °F81 %29.95 in6.2 miNNW (340°)5.8 mph
10:30 PM35.6 °F28.4 °F75 %29.95 in6.2 miNorth (350°)8.1 mph
11:00 PM35.6 °F28.4 °F75 %29.95 in6.2 miNorth (350°)3.5 mph
11:30 PM33.8 °F28.4 °F81 %29.95 in6.2 miNorth (350°)6.9 mph
Hourly data recorded from LFLY, located miles away from Lyon, France







STORIES FROM OUR PARTNERS